Location: Elstree
(51.6403°N, 0.2969°W)
Time: 14:37:01
(UTC+00:00)

Cosmos 1354 Rocket - Pass Details

Date: 19 June 2021
Orbit: 764 x 783 km, 74.0° (Epoch: 25 July)

Event Time Altitude Azimuth Distance (km) Brightness Sun altitude
Rises 22:17:46 0° 336° (NNW) 3,284 9.5 -11.5°
Reaches altitude 10° 22:20:11 10° 339° (NNW) 2,353 8.1 -11.6°
Maximum altitude 22:25:31 68° 62° (ENE) 847 4.2 -12.0°
Enters shadow 22:29:47 16° 144° (SE) 1,947 5.5 -12.2°
